Location: Caltech
(34.1382°N, 118.1253°W)
Time: 07:00:25
(UTC-07:00)

Iridium 3 - Visible Passes

Search period start: 28 May 2015 00:00
Search period end: 07 June 2015 00:00
Orbit: 776 x 779 km, 86.4° (Epoch: 27 May)

Date Brightness Start Highest point End Pass type
(mag) Time Alt. Az. Time Alt. Az. Time Alt. Az.
28 May 7.2 21:19:23 15° E 21:20:01 16° E 21:23:12 10° NE visible
28 May 6.2 22:59:49 45° WSW 23:00:24 47° W 23:05:25 10° N visible
29 May 5.4 22:26:03 65° S 22:26:50 89° E 22:32:05 10° N visible
30 May 5.9 21:52:14 39° ESE 21:53:23 45° E 21:58:21 10° NNE visible
30 May 7.8 23:32:41 15° W 23:34:26 16° WNW 23:37:33 10° NW visible
31 May 6.8 21:18:26 20° ESE 21:20:00 24° E 21:24:09 10° NNE visible
31 May 7.0 22:58:52 26° WSW 23:00:36 31° W 23:05:11 10° NNW visible
01 Jun 7.4 20:45:00 10° E 20:46:41 12° E 20:48:45 10° ENE visible
01 Jun 5.9 22:25:02 37° SSW 22:26:57 61° W 22:32:06 10° N visible
02 Jun 5.5 21:51:10 34° SSE 21:53:25 69° E 21:58:37 10° N visible
02 Jun 8.2 23:33:28 10° W 23:34:48 11° WNW 23:35:45 10° WNW visible
03 Jun 6.2 21:17:17 21° SE 21:20:00 35° E 21:24:43 10° NNE visible
03 Jun 7.6 22:57:43 13° WSW 23:00:51 21° WNW 23:04:43 10° NNW visible
04 Jun 7.0 20:43:22 10° ESE 20:46:39 18° E 20:50:13 10° NE visible
04 Jun 6.6 22:23:48 19° SW 22:27:05 41° W 22:31:59 10° NNW visible
05 Jun 5.6 21:49:51 20° S 21:53:30 80° W 21:58:44 10° N visible
06 Jun 5.7 21:15:52 15° SSE 21:20:01 52° E 21:25:05 10° NNE visible
06 Jun 8.1 22:58:17 10° WSW 23:01:11 14° WNW 23:03:47 10° NW visible
